Location: Celina Division
(33.3022°N, 96.7580°W)
Time: 02:29:22
(UTC+00:00)

Nadezhda 4 Rocket - Pass Details

Date: 11 July 2022
Orbit: 949 x 992 km, 82.9° (Epoch: 08 August)

Event Time Altitude Azimuth Distance (km) Brightness Sun altitude
Rises 10:31:03 0° 171° (S) 3,636 6.7 -10.7°
Reaches altitude 10° 10:33:36 10° 167° (SSE) 2,687 6.1 -10.3°
Maximum altitude 10:39:33 54° 91° (E) 1,148 4.8 -9.2°
Drops below altitude 10° 10:45:29 10° 16° (NNE) 2,681 7.1 -8.2°
Sets 10:48:01 0° 12° (NNE) 3,628 7.7 -7.8°
